DW3384 Weather Reports


time (UTC)temp
F
wind
direction
speed
knots
gust
knots
rain 1hr
in
rain 24hr
in
rain mn
in
humidity
%
barometer
mb
20260504000032 82 232 7.0 13.9 0.00 0.00 0.00 20 1002.7
20260503234529 82 180 6.1 16.5 0.00 0.00 0.00 19 1002.9
20260503233027 83 219 11.3 18.2 0.00 0.00 0.00 19 1003.1
20260503231526 82 200 7.0 20.9 0.00 0.00 0.00 20 1003.3
20260503230025 82 226 7.8 17.4 0.00 0.00 0.00 20 1003.5
20260503224522 81 230 5.2 15.6 0.00 0.00 0.00 22 1003.7
20260503223022 82 226 7.8 13.9 0.00 0.00 0.00 20 1003.9
20260503221519 81 188 8.7 17.4 0.00 0.00 0.00 20 1004.1
20260503220017 82 216 9.6 17.4 0.00 0.00 0.00 20 1004.5
20260503214518 83 232 7.8 18.2 0.00 0.00 0.00 20 1004.7
20260503213012 82 209 8.7 19.1 0.00 0.00 0.00 20 1004.9
20260503211510 82 184 7.8 20.0 0.00 0.00 0.00 21 1005.4
20260503210007 82 225 8.7 21.7 0.00 0.00 0.00 21 1005.9
20260503204503 81 227 6.1 20.0 0.00 0.00 0.00 20 1006.2
20260503203003 81 267 8.7 20.0 0.00 0.00 0.00 21 1006.7
20260503201558 81 235 7.0 18.2 0.00 0.00 0.00 22 1006.8
20260503200056 81 236 9.6 19.1 0.00 0.00 0.00 22 1007.1
20260503194554 81 250 7.0 16.5 0.00 0.00 0.00 22 1007.4
20260503193049 79 242 10.4 18.2 0.00 0.00 0.00 22 1007.8
20260503191548 78 220 6.1 17.4 0.00 0.00 0.00 24 1007.9
20260503190054 78 192 7.8 18.2 0.00 0.00 0.00 24 1008.3
20260503184541 78 215 8.7 15.6 0.00 0.00 0.00 24 1008.6
20260503183039 78 205 7.0 20.0 0.00 0.00 0.00 25 1009.0
20260503181536 78 221 7.8 18.2 0.00 0.00 0.00 26 1009.3
20260503180036 77 223 10.4 25.2 0.00 0.00 0.00 25 1009.7
20260503174532 76 247 13.9 21.7 0.00 0.00 0.00 24 1010.2
20260503173028 76 252 7.8 19.1 0.00 0.00 0.00 25 1010.5
20260503171524 75 212 8.7 16.5 0.00 0.00 0.00 25 1010.9
20260503081519 51 223 0.0 0.9 0.00 0.00 0.00 62 1012.4
20260503071601 53 91 0.9 5.2 0.00 0.00 0.00 57 1012.6
20260503060109 56 98 6.1 11.3 0.00 0.00 0.00 50 1013.0
20260503054555 57 101 6.1 10.4 0.00 0.00 0.00 48 1013.1
20260503053041 58 96 3.5 8.7 0.00 0.00 0.00 47 1013.1
20260503051532 59 145 4.3 11.3 0.00 0.00 0.00 46 1013.1
20260503050030 59 99 6.1 10.4 0.00 0.00 0.00 45 1013.1
20260503044529 59 85 3.5 9.6 0.00 0.00 0.00 44 1013.1
20260503043029 59 91 3.5 9.6 0.00 0.00 0.00 43 1013.1
20260503041529 60 63 4.3 8.7 0.00 0.00 0.00 43 1013.2
20260503040035 60 102 5.2 8.7 0.00 0.00 0.00 42 1013.1
20260503034527 61 62 4.3 9.6 0.00 0.00 0.00 40 1013.1
20260503033030 61 87 3.5 7.8 0.00 0.00 0.00 40 1013.2
20260503031526 62 86 3.5 5.2 0.00 0.00 0.00 37 1013.1
20260503030027 64 88 2.6 7.0 0.00 0.00 0.00 35 1012.9
20260503024524 65 96 2.6 6.1 0.00 0.00 0.00 32 1012.9
20260503023024 66 84 2.6 5.2 0.00 0.00 0.00 30 1012.7
20260503021524 68 70 2.6 7.0 0.00 0.00 0.00 27 1012.5
20260503020023 69 323 0.9 1.7 0.00 0.00 0.00 24 1012.4
20260503014525 71 315 0.0 0.9 0.00 0.00 0.00 22 1012.2
20260503013022 73 305 0.0 0.9 0.00 0.00 0.00 21 1012.1
20260503011524 74 297 0.9 2.6 0.00 0.00 0.00 20 1012.1
20260503010027 75 277 2.6 7.8 0.00 0.00 0.00 19 1012.0
20260503004519 76 288 1.7 5.2 0.00 0.00 0.00 18 1012.0
20260503003018 76 275 2.6 8.7 0.00 0.00 0.00 18 1012.1
20260503001518 77 296 0.0 2.6 0.00 0.00 0.00 18 1012.1